TimeCDT,TemperatureF,Dew PointF,Humidity,Sea Level PressureIn,VisibilityMPH,Wind Direction,Wind SpeedMPH,Gust SpeedMPH,PrecipitationIn,Events,Conditions,WindDirDegrees,DateUTC
12:05 AM,37.4,35.6,93,30.38,10.0,North,12.7,-,N/A,,Overcast,360,2012-10-04 05:05:00
12:23 AM,37.4,35.6,93,30.38,10.0,North,11.5,-,N/A,,Overcast,360,2012-10-04 05:23:00
12:52 AM,36.0,35.1,97,30.44,10.0,North,6.9,-,N/A,,Overcast,360,2012-10-04 05:52:00
1:52 AM,35.1,33.1,92,30.44,10.0,North,9.2,-,N/A,,Overcast,350,2012-10-04 06:52:00
2:52 AM,33.1,30.9,92,30.46,10.0,NW,10.4,-,N/A,,Partly Cloudy,320,2012-10-04 07:52:00
3:52 AM,33.1,30.9,92,30.45,10.0,NNW,11.5,-,N/A,,Overcast,330,2012-10-04 08:52:00
4:52 AM,32.0,30.0,92,30.46,10.0,NNW,11.5,-,N/A,,Clear,340,2012-10-04 09:52:00
5:52 AM,30.9,28.9,92,30.46,10.0,NNW,9.2,-,N/A,,Clear,340,2012-10-04 10:52:00
6:52 AM,30.9,28.9,92,30.46,10.0,NNW,11.5,-,N/A,,Scattered Clouds,340,2012-10-04 11:52:00
7:52 AM,30.0,28.9,96,30.47,10.0,North,8.1,-,N/A,,Scattered Clouds,350,2012-10-04 12:52:00
8:52 AM,30.9,28.9,92,30.48,10.0,NNW,5.8,-,N/A,,Scattered Clouds,330,2012-10-04 13:52:00
9:52 AM,33.1,30.0,89,30.48,10.0,NNW,10.4,-,N/A,,Mostly Cloudy,340,2012-10-04 14:52:00
10:52 AM,36.0,30.9,82,30.48,10.0,North,9.2,-,N/A,,Partly Cloudy,10,2012-10-04 15:52:00
11:52 AM,37.9,27.0,65,30.47,10.0,North,13.8,-,N/A,,Overcast,350,2012-10-04 16:52:00
11:58 AM,37.4,26.6,65,30.40,10.0,NNW,12.7,-,N/A,,Overcast,330,2012-10-04 16:58:00
12:25 PM,37.4,26.6,65,30.41,10.0,North,12.7,-,N/A,,Overcast,360,2012-10-04 17:25:00
12:52 PM,37.9,27.0,65,30.48,10.0,NNW,12.7,-,N/A,,Overcast,340,2012-10-04 17:52:00
1:52 PM,37.9,26.1,62,30.47,10.0,North,11.5,18.4,N/A,,Overcast,360,2012-10-04 18:52:00
2:52 PM,42.1,26.1,53,30.44,10.0,NW,12.7,-,N/A,,Mostly Cloudy,310,2012-10-04 19:52:00
3:52 PM,42.1,25.0,51,30.43,10.0,North,10.4,-,N/A,,Mostly Cloudy,360,2012-10-04 20:52:00
4:52 PM,41.0,24.1,51,30.43,10.0,NNW,10.4,-,N/A,,Overcast,330,2012-10-04 21:52:00
5:52 PM,41.0,25.0,53,30.43,10.0,NNW,10.4,-,N/A,,Mostly Cloudy,330,2012-10-04 22:52:00
6:52 PM,39.0,26.1,60,30.43,10.0,NW,12.7,-,N/A,,Mostly Cloudy,310,2012-10-04 23:52:00
7:52 PM,37.9,26.1,62,30.44,10.0,NW,10.4,-,N/A,,Overcast,320,2012-10-05 00:52:00
8:52 PM,37.0,27.0,67,30.45,10.0,NNW,6.9,-,N/A,,Overcast,340,2012-10-05 01:52:00
9:52 PM,35.6,24.8,65,30.38,10.0,North,8.1,-,N/A,,Overcast,350,2012-10-05 02:52:00
10:52 PM,33.1,24.1,70,30.45,10.0,NW,6.9,-,N/A,,Partly Cloudy,320,2012-10-05 03:52:00
11:52 PM,30.9,23.0,72,30.45,10.0,NNW,9.2,-,N/A,,Clear,340,2012-10-05 04:52:00